Wetterdaten: Donnerstag, 25.06.2015
Datum Zeit Auen-Temp. Temp gefhlt Luftfeuchte Luftdruck Regen Wind Richtung Richtung Taupunkt Windben
25.06.2015 00:00 7,5 C 7,2 C 80 % 1024,3 hPa 0,0 mm 0,0 km/h (0 Bft) SO 135 4,3 C 0,0 km/h (0 Bft)
25.06.2015 00:05 7,5 C 7,2 C 80 % 1024,3 hPa 0,0 mm 0,0 km/h (0 Bft) SO 135 4,3 C 0,0 km/h (0 Bft)
25.06.2015 00:10 7,4 C 7,1 C 81 % 1024,3 hPa 0,0 mm 0,0 km/h (0 Bft) SO 135 4,4 C 0,0 km/h (0 Bft)
25.06.2015 00:15 7,4 C 7,1 C 81 % 1024,2 hPa 0,0 mm 0,0 km/h (0 Bft) SO 135 4,4 C 0,0 km/h (0 Bft)
25.06.2015 00:20 7,2 C 6,9 C 81 % 1024,2 hPa 0,0 mm 0,0 km/h (0 Bft) SO 135 4,2 C 0,0 km/h (0 Bft)
25.06.2015 00:25 7,1 C 6,8 C 81 % 1024,2 hPa 0,0 mm 0,0 km/h (0 Bft) SO 135 4,1 C 0,0 km/h (0 Bft)
25.06.2015 00:30 7,0 C 6,7 C 82 % 1024,2 hPa 0,0 mm 0,0 km/h (0 Bft) SO 135 4,1 C 0,0 km/h (0 Bft)
25.06.2015 00:35 6,9 C 6,6 C 82 % 1024,2 hPa 0,0 mm 0,0 km/h (0 Bft) SO 135 4,0 C 0,0 km/h (0 Bft)
25.06.2015 00:40 6,9 C 6,6 C 82 % 1024,2 hPa 0,0 mm 0,0 km/h (0 Bft) SO 135 4,0 C 0,0 km/h (0 Bft)
25.06.2015 00:45 7,0 C 6,7 C 82 % 1024,2 hPa 0,0 mm 0,0 km/h (0 Bft) SO 135 4,1 C 0,0 km/h (0 Bft)
25.06.2015 00:50 7,1 C 6,8 C 83 % 1024,2 hPa 0,0 mm 0,0 km/h (0 Bft) O-SO 112 4,4 C 0,0 km/h (0 Bft)
25.06.2015 00:55 7,1 C 6,8 C 83 % 1024,1 hPa 0,0 mm 0,0 km/h (0 Bft) O-NO 67 4,4 C 0,0 km/h (0 Bft)
25.06.2015 01:00 7,1 C 6,9 C 80 % 1024,1 hPa 0,0 mm 0,0 km/h (0 Bft) O-NO 67 3,9 C 0,0 km/h (0 Bft)
25.06.2015 01:05 7,0 C 6,9 C 81 % 1024,1 hPa 0,0 mm 0,0 km/h (0 Bft) O-NO 67 4,0 C 0,0 km/h (0 Bft)
25.06.2015 01:10 6,7 C 6,5 C 84 % 1024,1 hPa 0,0 mm 0,0 km/h (0 Bft) O-NO 67 4,2 C 0,0 km/h (0 Bft)
25.06.2015 01:15 6,6 C 6,4 C 84 % 1024,2 hPa 0,0 mm 0,0 km/h (0 Bft) O-SO 112 4,1 C 0,0 km/h (0 Bft)
25.06.2015 01:20 6,6 C 6,4 C 84 % 1024,2 hPa 0,0 mm 0,0 km/h (0 Bft) O-SO 112 4,1 C 0,0 km/h (0 Bft)
25.06.2015 01:25 6,5 C 6,3 C 84 % 1024,2 hPa 0,0 mm 0,0 km/h (0 Bft) O-NO 67 4,0 C 0,0 km/h (0 Bft)
25.06.2015 01:30 6,3 C 6,1 C 84 % 1024,2 hPa 0,0 mm 0,0 km/h (0 Bft) O-NO 67 3,8 C 0,0 km/h (0 Bft)
25.06.2015 01:35 6,2 C 6,0 C 84 % 1023,8 hPa 0,0 mm 0,0 km/h (0 Bft) O-NO 67 3,7 C 0,0 km/h (0 Bft)
25.06.2015 01:40 6,2 C 5,9 C 84 % 1023,8 hPa 0,0 mm 0,0 km/h (0 Bft) O-NO 67 3,7 C 0,0 km/h (0 Bft)
25.06.2015 01:45 6,1 C 5,8 C 84 % 1023,8 hPa 0,0 mm 0,0 km/h (0 Bft) O 90 3,6 C 0,0 km/h (0 Bft)
25.06.2015 01:50 6,2 C 5,9 C 84 % 1023,8 hPa 0,0 mm 0,0 km/h (0 Bft) O 90 3,7 C 0,0 km/h (0 Bft)
25.06.2015 01:55 6,1 C 5,9 C 85 % 1024,1 hPa 0,0 mm 0,0 km/h (0 Bft) O 90 3,8 C 0,0 km/h (0 Bft)
25.06.2015 02:00 6,0 C 5,8 C 85 % 1024,1 hPa 0,0 mm 0,0 km/h (0 Bft) O-SO 112 3,7 C 0,0 km/h (0 Bft)
25.06.2015 02:05 6,1 C 5,9 C 85 % 1024,1 hPa 0,0 mm 0,0 km/h (0 Bft) S-SW 202 3,8 C 0,0 km/h (0 Bft)
25.06.2015 02:10 6,1 C 5,9 C 85 % 1024,1 hPa 0,0 mm 0,0 km/h (0 Bft) W-SW 247 3,8 C 0,0 km/h (0 Bft)
25.06.2015 02:15 6,0 C 5,8 C 85 % 1024,1 hPa 0,0 mm 0,0 km/h (0 Bft) W-SW 247 3,7 C 0,0 km/h (0 Bft)
25.06.2015 02:20 6,0 C 5,8 C 85 % 1024,1 hPa 0,0 mm 0,0 km/h (0 Bft) SW 225 3,7 C 0,0 km/h (0 Bft)
25.06.2015 02:25 6,1 C 5,8 C 86 % 1024,1 hPa 0,0 mm 0,3 km/h (0 Bft) W-SW 247 3,9 C 6,2 km/h (2 Bft)
25.06.2015 02:30 6,1 C 5,9 C 86 % 1024,1 hPa 0,0 mm 0,5 km/h (0 Bft) SW 225 3,9 C 0,0 km/h (0 Bft)
25.06.2015 02:35 6,3 C 6,0 C 86 % 1024,2 hPa 0,0 mm 0,5 km/h (0 Bft) S 180 4,1 C 0,0 km/h (0 Bft)
25.06.2015 02:40 6,4 C 6,1 C 87 % 1024,2 hPa 0,0 mm 0,0 km/h (0 Bft) S 180 4,4 C 0,0 km/h (0 Bft)
25.06.2015 02:45 6,4 C 6,1 C 87 % 1024,2 hPa 0,0 mm 0,0 km/h (0 Bft) S 180 4,4 C 0,0 km/h (0 Bft)
25.06.2015 02:50 6,5 C 6,2 C 87 % 1024,2 hPa 0,0 mm 0,0 km/h (0 Bft) S-SW 202 4,5 C 0,0 km/h (0 Bft)
25.06.2015 02:55 6,4 C 6,2 C 87 % 1024,3 hPa 0,0 mm 0,3 km/h (0 Bft) SW 225 4,4 C 0,0 km/h (0 Bft)
25.06.2015 03:00 6,2 C 6,0 C 87 % 1024,3 hPa 0,0 mm 0,3 km/h (0 Bft) S-SW 202 4,2 C 0,0 km/h (0 Bft)
25.06.2015 03:05 6,2 C 6,0 C 87 % 1024,3 hPa 0,0 mm 0,3 km/h (0 Bft) S-SW 202 4,2 C 0,0 km/h (0 Bft)
25.06.2015 03:10 5,9 C 5,7 C 87 % 1024,3 hPa 0,0 mm 0,0 km/h (0 Bft) S-SW 202 3,9 C 0,0 km/h (0 Bft)
25.06.2015 03:15 5,8 C 5,6 C 87 % 1024,0 hPa 0,0 mm 0,0 km/h (0 Bft) W 270 3,8 C 0,0 km/h (0 Bft)
25.06.2015 03:20 5,9 C 5,7 C 87 % 1024,0 hPa 0,0 mm 0,0 km/h (0 Bft) S-SW 202 3,9 C 0,0 km/h (0 Bft)
25.06.2015 03:25 6,0 C 5,7 C 87 % 1024,0 hPa 0,0 mm 0,0 km/h (0 Bft) S-SW 202 4,0 C 0,0 km/h (0 Bft)
25.06.2015 03:30 6,1 C 5,8 C 87 % 1024,0 hPa 0,0 mm 0,0 km/h (0 Bft) S-SW 202 4,1 C 0,0 km/h (0 Bft)
25.06.2015 03:35 6,1 C 5,8 C 87 % 1024,1 hPa 0,0 mm 0,0 km/h (0 Bft) S-SW 202 4,1 C 0,0 km/h (0 Bft)
25.06.2015 03:40 5,8 C 5,6 C 88 % 1024,1 hPa 0,0 mm 0,0 km/h (0 Bft) S-SW 202 4,0 C 0,0 km/h (0 Bft)
25.06.2015 03:45 5,7 C 5,5 C 88 % 1024,1 hPa 0,0 mm 0,0 km/h (0 Bft) S-SW 202 3,9 C 0,0 km/h (0 Bft)
25.06.2015 03:50 5,6 C 5,5 C 88 % 1024,1 hPa 0,0 mm 0,0 km/h (0 Bft) S-SW 202 3,8 C 0,0 km/h (0 Bft)
25.06.2015 03:55 5,7 C 5,5 C 88 % 1024,1 hPa 0,0 mm 0,0 km/h (0 Bft) S-SW 202 3,9 C 0,0 km/h (0 Bft)
25.06.2015 04:00 5,5 C 5,4 C 88 % 1024,1 hPa 0,0 mm 0,0 km/h (0 Bft) S-SW 202 3,7 C 0,0 km/h (0 Bft)
25.06.2015 04:05 5,6 C 5,4 C 88 % 1024,1 hPa 0,0 mm 0,0 km/h (0 Bft) S-SW 202 3,8 C 0,0 km/h (0 Bft)
25.06.2015 04:10 5,4 C 5,3 C 88 % 1024,1 hPa 0,0 mm 0,0 km/h (0 Bft) S-SW 202 3,6 C 0,0 km/h (0 Bft)
25.06.2015 04:15 5,4 C 5,3 C 88 % 1024,2 hPa 0,0 mm 0,0 km/h (0 Bft) S-SW 202 3,6 C 0,0 km/h (0 Bft)
25.06.2015 04:20 5,3 C 5,1 C 88 % 1024,2 hPa 0,0 mm 0,0 km/h (0 Bft) S-SW 202 3,5 C 0,0 km/h (0 Bft)
25.06.2015 04:25 5,4 C 5,2 C 88 % 1024,2 hPa 0,0 mm 0,0 km/h (0 Bft) S-SW 202 3,6 C 0,0 km/h (0 Bft)
25.06.2015 04:30 5,1 C 5,0 C 88 % 1024,2 hPa 0,0 mm 0,0 km/h (0 Bft) S-SW 202 3,3 C 0,0 km/h (0 Bft)
25.06.2015 04:35 5,3 C 5,1 C 88 % 1024,1 hPa 0,0 mm 0,0 km/h (0 Bft) S-SW 202 3,5 C 0,0 km/h (0 Bft)
25.06.2015 04:40 5,2 C 5,0 C 88 % 1024,1 hPa 0,0 mm 0,0 km/h (0 Bft) S-SW 202 3,4 C 0,0 km/h (0 Bft)
25.06.2015 04:45 5,2 C 5,1 C 88 % 1024,1 hPa 0,0 mm 0,0 km/h (0 Bft) S-SW 202 3,4 C 0,0 km/h (0 Bft)
25.06.2015 04:50 5,4 C 5,2 C 88 % 1024,1 hPa 0,0 mm 0,0 km/h (0 Bft) S-SW 202 3,6 C 0,0 km/h (0 Bft)
25.06.2015 04:55 5,2 C 5,1 C 88 % 1024,0 hPa 0,0 mm 0,0 km/h (0 Bft) S-SW 202 3,4 C 0,0 km/h (0 Bft)
25.06.2015 05:00 5,3 C 5,2 C 89 % 1024,0 hPa 0,0 mm 0,0 km/h (0 Bft) S-SW 202 3,6 C 0,0 km/h (0 Bft)
25.06.2015 05:05 5,4 C 5,2 C 89 % 1024,0 hPa 0,0 mm 0,0 km/h (0 Bft) S-SW 202 3,7 C 0,0 km/h (0 Bft)
25.06.2015 05:10 5,6 C 5,4 C 89 % 1024,0 hPa 0,0 mm 0,0 km/h (0 Bft) S-SW 202 3,9 C 0,0 km/h (0 Bft)
25.06.2015 05:15 5,3 C 5,2 C 89 % 1024,0 hPa 0,0 mm 0,0 km/h (0 Bft) S-SW 202 3,6 C 0,0 km/h (0 Bft)
25.06.2015 05:20 5,2 C 5,1 C 89 % 1024,0 hPa 0,0 mm 0,0 km/h (0 Bft) W 270 3,5 C 0,0 km/h (0 Bft)
25.06.2015 05:25 5,2 C 5,1 C 89 % 1024,0 hPa 0,0 mm 0,0 km/h (0 Bft) W-SW 247 3,5 C 0,0 km/h (0 Bft)
25.06.2015 05:30 5,4 C 5,2 C 89 % 1024,0 hPa 0,0 mm 0,0 km/h (0 Bft) S-SW 202 3,7 C 0,0 km/h (0 Bft)
25.06.2015 05:35 5,4 C 5,2 C 89 % 1024,3 hPa 0,0 mm 0,0 km/h (0 Bft) S-SW 202 3,7 C 0,0 km/h (0 Bft)
25.06.2015 05:40 5,5 C 5,4 C 89 % 1024,3 hPa 0,0 mm 0,0 km/h (0 Bft) S-SW 202 3,8 C 0,0 km/h (0 Bft)
25.06.2015 05:45 5,6 C 5,5 C 89 % 1024,3 hPa 0,0 mm 0,0 km/h (0 Bft) S-SW 202 3,9 C 0,0 km/h (0 Bft)
25.06.2015 05:50 5,8 C 5,7 C 89 % 1024,3 hPa 0,0 mm 0,0 km/h (0 Bft) S 180 4,1 C 0,0 km/h (0 Bft)
25.06.2015 05:55 5,8 C 5,8 C 86 % 1024,2 hPa 0,0 mm 0,0 km/h (0 Bft) S 180 3,6 C 0,0 km/h (0 Bft)
25.06.2015 06:00 5,9 C 6,0 C 86 % 1024,2 hPa 0,0 mm 0,0 km/h (0 Bft) S-SO 157 3,7 C 0,0 km/h (0 Bft)
25.06.2015 06:05 5,9 C 6,5 C 86 % 1024,2 hPa 0,0 mm 0,0 km/h (0 Bft) S-SO 157 3,7 C 0,0 km/h (0 Bft)
25.06.2015 06:10 6,3 C 8,7 C 86 % 1024,2 hPa 0,0 mm 0,0 km/h (0 Bft) S-SO 157 4,1 C 0,0 km/h (0 Bft)
25.06.2015 06:15 6,7 C 9,0 C 86 % 1024,1 hPa 0,0 mm 0,0 km/h (0 Bft) S-SO 157 4,5 C 0,0 km/h (0 Bft)
25.06.2015 06:20 7,2 C 10,2 C 86 % 1024,1 hPa 0,0 mm 0,0 km/h (0 Bft) S-SO 157 5,0 C 0,0 km/h (0 Bft)
25.06.2015 06:25 7,5 C 11,1 C 90 % 1024,1 hPa 0,0 mm 0,0 km/h (0 Bft) S-SO 157 6,0 C 0,0 km/h (0 Bft)
25.06.2015 06:30 7,6 C 11,9 C 85 % 1024,1 hPa 0,0 mm 0,0 km/h (0 Bft) S-SO 157 5,2 C 0,0 km/h (0 Bft)
25.06.2015 06:35 7,9 C 12,9 C 85 % 1024,1 hPa 0,0 mm 0,0 km/h (0 Bft) S-SO 157 5,5 C 0,0 km/h (0 Bft)
25.06.2015 06:40 8,6 C 14,3 C 85 % 1024,1 hPa 0,0 mm 0,0 km/h (0 Bft) SO 135 6,2 C 0,0 km/h (0 Bft)
25.06.2015 06:45 9,0 C 15,1 C 85 % 1024,1 hPa 0,0 mm 0,0 km/h (0 Bft) O-SO 112 6,6 C 0,0 km/h (0 Bft)
25.06.2015 06:50 9,6 C 16,3 C 84 % 1024,1 hPa 0,0 mm 0,0 km/h (0 Bft) O-NO 67 7,0 C 0,0 km/h (0 Bft)
25.06.2015 06:55 10,2 C 17,2 C 84 % 1024,1 hPa 0,0 mm 0,0 km/h (0 Bft) O-NO 67 7,6 C 0,0 km/h (0 Bft)
25.06.2015 07:00 11,2 C 18,3 C 86 % 1024,1 hPa 0,0 mm 0,0 km/h (0 Bft) O-SO 112 8,9 C 0,0 km/h (0 Bft)
25.06.2015 07:05 10,8 C 18,8 C 84 % 1024,1 hPa 0,0 mm 0,0 km/h (0 Bft) O-SO 112 8,2 C 0,0 km/h (0 Bft)
25.06.2015 07:10 11,0 C 18,5 C 82 % 1024,1 hPa 0,0 mm 0,0 km/h (0 Bft) O-NO 67 8,0 C 0,0 km/h (0 Bft)
25.06.2015 07:15 11,6 C 18,4 C 82 % 1024,2 hPa 0,0 mm 0,0 km/h (0 Bft) O-NO 67 8,6 C 0,0 km/h (0 Bft)
25.06.2015 07:20 12,1 C 19,8 C 81 % 1024,2 hPa 0,0 mm 0,0 km/h (0 Bft) O-NO 67 8,9 C 0,0 km/h (0 Bft)
25.06.2015 07:25 12,2 C 21,0 C 79 % 1024,2 hPa 0,0 mm 0,0 km/h (0 Bft) O-NO 67 8,7 C 0,0 km/h (0 Bft)
25.06.2015 07:30 12,7 C 21,6 C 78 % 1024,2 hPa 0,0 mm 0,0 km/h (0 Bft) O 90 9,0 C 0,0 km/h (0 Bft)
25.06.2015 07:35 12,9 C 21,7 C 77 % 1024,3 hPa 0,0 mm 0,0 km/h (0 Bft) O-NO 67 9,0 C 0,0 km/h (0 Bft)
25.06.2015 07:40 13,5 C 22,3 C 74 % 1024,3 hPa 0,0 mm 0,0 km/h (0 Bft) O-SO 112 9,0 C 0,0 km/h (0 Bft)
25.06.2015 07:45 14,1 C 22,8 C 73 % 1024,3 hPa 0,0 mm 0,0 km/h (0 Bft) O-SO 112 9,3 C 0,0 km/h (0 Bft)
25.06.2015 07:50 15,0 C 23,5 C 72 % 1024,3 hPa 0,0 mm 0,0 km/h (0 Bft) S 180 10,0 C 0,0 km/h (0 Bft)
25.06.2015 07:55 15,1 C 24,1 C 71 % 1024,1 hPa 0,0 mm 0,0 km/h (0 Bft) O 90 9,9 C 0,0 km/h (0 Bft)
25.06.2015 08:00 15,6 C 25,1 C 70 % 1024,1 hPa 0,0 mm 0,0 km/h (0 Bft) O 90 10,1 C 0,0 km/h (0 Bft)
25.06.2015 08:05 15,9 C 25,9 C 69 % 1024,1 hPa 0,0 mm 0,0 km/h (0 Bft) O-SO 112 10,2 C 0,0 km/h (0 Bft)
25.06.2015 08:10 16,2 C 25,9 C 68 % 1024,1 hPa 0,0 mm 0,0 km/h (0 Bft) O 90 10,3 C 0,0 km/h (0 Bft)
25.06.2015 08:15 16,3 C 26,1 C 68 % 1023,9 hPa 0,0 mm 0,0 km/h (0 Bft) SO 135 10,4 C 0,0 km/h (0 Bft)
25.06.2015 08:20 16,2 C 26,4 C 67 % 1023,9 hPa 0,0 mm 0,0 km/h (0 Bft) O 90 10,1 C 0,0 km/h (0 Bft)
25.06.2015 08:25 17,1 C 26,5 C 67 % 1023,9 hPa 0,0 mm 0,0 km/h (0 Bft) O 90 10,9 C 0,0 km/h (0 Bft)
25.06.2015 08:30 17,0 C 26,0 C 66 % 1023,9 hPa 0,0 mm 0,0 km/h (0 Bft) O 90 10,6 C 0,0 km/h (0 Bft)
25.06.2015 08:35 17,1 C 25,3 C 66 % 1023,8 hPa 0,0 mm 0,3 km/h (0 Bft) N-NW 337 10,7 C 0,0 km/h (0 Bft)
25.06.2015 08:40 17,5 C 24,9 C 65 % 1023,8 hPa 0,0 mm 0,8 km/h (0 Bft) N-NO 22 10,8 C 2,8 km/h (1 Bft)
25.06.2015 08:45 18,0 C 25,0 C 64 % 1023,8 hPa 0,0 mm 0,8 km/h (0 Bft) NW 315 11,1 C 2,8 km/h (1 Bft)
25.06.2015 08:50 18,7 C 26,0 C 63 % 1023,8 hPa 0,0 mm 1,0 km/h (0 Bft) NO 45 11,5 C 0,0 km/h (0 Bft)
25.06.2015 08:55 18,8 C 26,3 C 61 % 1023,9 hPa 0,0 mm 1,6 km/h (1 Bft) N-NO 22 11,1 C 4,7 km/h (1 Bft)
25.06.2015 09:00 18,6 C 25,4 C 59 % 1023,9 hPa 0,0 mm 2,3 km/h (1 Bft) NO 45 10,4 C 3,9 km/h (1 Bft)
25.06.2015 09:05 18,4 C 25,1 C 60 % 1023,9 hPa 0,0 mm 2,8 km/h (1 Bft) N-NO 22 10,5 C 5,7 km/h (1 Bft)
25.06.2015 09:10 18,4 C 25,0 C 59 % 1023,9 hPa 0,0 mm 2,8 km/h (1 Bft) SO 135 10,2 C 8,5 km/h (2 Bft)
25.06.2015 09:15 18,0 C 24,7 C 59 % 1024,1 hPa 0,0 mm 1,8 km/h (1 Bft) N 360 9,9 C 0,0 km/h (0 Bft)
25.06.2015 09:20 18,4 C 24,3 C 59 % 1024,1 hPa 0,0 mm 1,0 km/h (0 Bft) N-NW 337 10,2 C 5,4 km/h (1 Bft)
25.06.2015 09:25 18,5 C 24,0 C 59 % 1024,1 hPa 0,0 mm 2,1 km/h (1 Bft) N-NO 22 10,3 C 2,8 km/h (1 Bft)
25.06.2015 09:30 18,8 C 24,1 C 59 % 1024,1 hPa 0,0 mm 2,3 km/h (1 Bft) NO 45 10,6 C 4,4 km/h (1 Bft)
25.06.2015 09:35 18,7 C 24,2 C 57 % 1024,2 hPa 0,0 mm 2,3 km/h (1 Bft) N-NO 22 10,0 C 5,4 km/h (1 Bft)
25.06.2015 09:40 18,7 C 24,6 C 56 % 1024,2 hPa 0,0 mm 3,6 km/h (1 Bft) N-NW 337 9,7 C 9,1 km/h (2 Bft)
25.06.2015 09:45 18,7 C 24,4 C 56 % 1024,2 hPa 0,0 mm 4,1 km/h (1 Bft) N-NO 22 9,7 C 8,5 km/h (2 Bft)
25.06.2015 09:50 18,6 C 24,1 C 56 % 1024,2 hPa 0,0 mm 4,4 km/h (1 Bft) NO 45 9,6 C 0,0 km/h (0 Bft)
25.06.2015 09:55 18,7 C 24,4 C 56 % 1024,2 hPa 0,0 mm 4,7 km/h (1 Bft) N-NO 22 9,7 C 6,0 km/h (2 Bft)
25.06.2015 10:00 18,8 C 24,1 C 57 % 1024,2 hPa 0,0 mm 5,2 km/h (1 Bft) O 90 10,1 C 9,8 km/h (2 Bft)
25.06.2015 10:05 18,7 C 24,2 C 56 % 1024,2 hPa 0,0 mm 4,4 km/h (1 Bft) O 90 9,7 C 2,8 km/h (1 Bft)
25.06.2015 10:10 18,8 C 25,0 C 56 % 1024,2 hPa 0,0 mm 3,9 km/h (1 Bft) O-NO 67 9,8 C 13,7 km/h (3 Bft)
25.06.2015 10:15 18,6 C 24,0 C 55 % 1024,5 hPa 0,0 mm 5,4 km/h (1 Bft) O-NO 67 9,4 C 3,9 km/h (1 Bft)
25.06.2015 10:20 18,6 C 24,2 C 56 % 1024,5 hPa 0,0 mm 4,4 km/h (1 Bft) W 270 9,6 C 0,0 km/h (0 Bft)
25.06.2015 10:25 18,7 C 24,4 C 56 % 1024,5 hPa 0,0 mm 3,4 km/h (1 Bft) N-NO 22 9,7 C 10,6 km/h (2 Bft)
25.06.2015 10:30 18,7 C 23,8 C 56 % 1024,5 hPa 0,0 mm 4,1 km/h (1 Bft) O-NO 67 9,7 C 3,6 km/h (1 Bft)
25.06.2015 10:35 18,7 C 23,6 C 56 % 1024,8 hPa 0,0 mm 5,2 km/h (1 Bft) O-NO 67 9,7 C 11,4 km/h (2 Bft)
25.06.2015 10:40 18,6 C 23,0 C 56 % 1024,8 hPa 0,0 mm 7,3 km/h (2 Bft) NW 315 9,6 C 7,5 km/h (2 Bft)
25.06.2015 10:45 18,7 C 23,1 C 56 % 1024,8 hPa 0,0 mm 7,0 km/h (2 Bft) N-NO 22 9,7 C 10,6 km/h (2 Bft)
25.06.2015 10:50 18,6 C 22,8 C 55 % 1024,8 hPa 0,0 mm 7,0 km/h (2 Bft) O-SO 112 9,4 C 9,3 km/h (2 Bft)
25.06.2015 10:55 18,6 C 23,1 C 56 % 1024,9 hPa 0,0 mm 7,0 km/h (2 Bft) N-NO 22 9,6 C 10,6 km/h (2 Bft)
25.06.2015 11:00 18,5 C 22,7 C 54 % 1024,9 hPa 0,0 mm 7,3 km/h (2 Bft) N-NW 337 9,0 C 14,5 km/h (3 Bft)
25.06.2015 11:05 18,5 C 22,3 C 54 % 1024,9 hPa 0,0 mm 7,8 km/h (2 Bft) N-NW 337 9,0 C 7,3 km/h (2 Bft)
25.06.2015 11:10 18,5 C 22,1 C 53 % 1024,9 hPa 0,0 mm 7,8 km/h (2 Bft) N-NO 22 8,7 C 10,1 km/h (2 Bft)
25.06.2015 11:15 18,3 C 22,3 C 53 % 1024,8 hPa 0,0 mm 8,3 km/h (2 Bft) O-NO 67 8,6 C 9,1 km/h (2 Bft)
25.06.2015 11:20 18,4 C 22,1 C 54 % 1024,8 hPa 0,0 mm 8,3 km/h (2 Bft) NO 45 8,9 C 6,7 km/h (2 Bft)
25.06.2015 11:25 18,5 C 22,1 C 54 % 1024,8 hPa 0,0 mm 6,5 km/h (2 Bft) O-SO 112 9,0 C 4,9 km/h (1 Bft)
25.06.2015 11:30 18,6 C 22,6 C 53 % 1024,8 hPa 0,0 mm 6,0 km/h (2 Bft) N-NO 22 8,8 C 18,6 km/h (3 Bft)
25.06.2015 11:35 18,5 C 22,7 C 52 % 1024,9 hPa 0,0 mm 7,3 km/h (2 Bft) O-NO 67 8,5 C 5,7 km/h (1 Bft)
25.06.2015 11:40 18,7 C 23,0 C 54 % 1024,9 hPa 0,0 mm 4,9 km/h (1 Bft) W-NW 292 9,2 C 0,0 km/h (0 Bft)
25.06.2015 11:45 18,9 C 23,1 C 53 % 1024,9 hPa 0,0 mm 4,1 km/h (1 Bft) NO 45 9,1 C 3,9 km/h (1 Bft)
25.06.2015 11:50 18,8 C 22,9 C 53 % 1024,9 hPa 0,0 mm 4,1 km/h (1 Bft) W-NW 292 9,0 C 7,0 km/h (2 Bft)
25.06.2015 11:55 19,1 C 23,1 C 54 % 1025,2 hPa 0,0 mm 4,7 km/h (1 Bft) NO 45 9,6 C 12,7 km/h (3 Bft)
25.06.2015 12:00 18,8 C 23,0 C 53 % 1025,2 hPa 0,0 mm 6,2 km/h (2 Bft) W 270 9,0 C 7,0 km/h (2 Bft)
25.06.2015 12:05 18,8 C 23,0 C 53 % 1025,2 hPa 0,0 mm 6,7 km/h (2 Bft) W-NW 292 9,0 C 10,1 km/h (2 Bft)
25.06.2015 12:10 18,8 C 23,1 C 54 % 1025,2 hPa 0,0 mm 6,5 km/h (2 Bft) W 270 9,3 C 5,7 km/h (1 Bft)
25.06.2015 12:15 18,8 C 23,1 C 54 % 1025,2 hPa 0,0 mm 6,0 km/h (2 Bft) NW 315 9,3 C 7,8 km/h (2 Bft)
25.06.2015 12:20 19,3 C 23,5 C 54 % 1025,2 hPa 0,0 mm 4,1 km/h (1 Bft) NW 315 9,8 C 9,3 km/h (2 Bft)
25.06.2015 12:25 19,2 C 23,4 C 53 % 1025,2 hPa 0,0 mm 4,1 km/h (1 Bft) NO 45 9,4 C 5,4 km/h (1 Bft)
25.06.2015 12:30 19,1 C 23,3 C 53 % 1025,2 hPa 0,0 mm 6,0 km/h (2 Bft) N-NO 22 9,3 C 9,6 km/h (2 Bft)
25.06.2015 12:35 19,2 C 23,3 C 54 % 1025,4 hPa 0,0 mm 5,4 km/h (1 Bft) NW 315 9,7 C 7,0 km/h (2 Bft)
25.06.2015 12:40 19,5 C 23,3 C 53 % 1025,4 hPa 0,0 mm 6,5 km/h (2 Bft) N 360 9,7 C 12,9 km/h (3 Bft)
25.06.2015 12:45 19,4 C 23,1 C 53 % 1025,4 hPa 0,0 mm 6,7 km/h (2 Bft) N-NW 337 9,6 C 3,1 km/h (1 Bft)
25.06.2015 12:50 19,1 C 23,2 C 52 % 1025,4 hPa 0,0 mm 4,1 km/h (1 Bft) W-SW 247 9,0 C 0,0 km/h (0 Bft)
25.06.2015 12:55 19,5 C 23,7 C 53 % 1025,6 hPa 0,0 mm 2,1 km/h (1 Bft) N-NW 337 9,7 C 3,6 km/h (1 Bft)
25.06.2015 13:00 19,5 C 23,6 C 52 % 1025,6 hPa 0,0 mm 2,6 km/h (1 Bft) N-NW 337 9,4 C 3,4 km/h (1 Bft)
25.06.2015 13:05 19,5 C 23,5 C 53 % 1025,6 hPa 0,0 mm 3,6 km/h (1 Bft) NW 315 9,7 C 12,9 km/h (3 Bft)
25.06.2015 13:10 19,8 C 23,1 C 53 % 1025,6 hPa 0,0 mm 4,4 km/h (1 Bft) O-NO 67 9,9 C 11,1 km/h (2 Bft)
25.06.2015 13:15 19,7 C 23,3 C 53 % 1025,3 hPa 0,0 mm 5,4 km/h (1 Bft) O 90 9,8 C 0,0 km/h (0 Bft)
25.06.2015 13:20 19,6 C 24,4 C 52 % 1025,3 hPa 0,0 mm 4,4 km/h (1 Bft) NO 45 9,5 C 10,6 km/h (2 Bft)
25.06.2015 13:25 19,4 C 24,0 C 52 % 1025,3 hPa 0,0 mm 4,7 km/h (1 Bft) N 360 9,3 C 12,4 km/h (3 Bft)
25.06.2015 13:30 19,8 C 23,7 C 52 % 1025,3 hPa 0,0 mm 7,0 km/h (2 Bft) N 360 9,7 C 14,8 km/h (3 Bft)
25.06.2015 13:35 20,2 C 24,3 C 53 % 1025,5 hPa 0,0 mm 7,5 km/h (2 Bft) NW 315 10,3 C 11,9 km/h (2 Bft)
25.06.2015 13:40 20,1 C 24,1 C 52 % 1025,5 hPa 0,0 mm 7,8 km/h (2 Bft) N-NW 337 9,9 C 7,5 km/h (2 Bft)
25.06.2015 13:45 19,9 C 23,7 C 52 % 1025,5 hPa 0,0 mm 7,3 km/h (2 Bft) NW 315 9,7 C 6,7 km/h (2 Bft)
25.06.2015 13:50 20,1 C 23,7 C 52 % 1025,5 hPa 0,0 mm 4,7 km/h (1 Bft) NW 315 9,9 C 7,8 km/h (2 Bft)
25.06.2015 13:55 20,5 C 24,2 C 53 % 1025,2 hPa 0,0 mm 4,1 km/h (1 Bft) NW 315 10,6 C 7,5 km/h (2 Bft)
25.06.2015 14:00 20,9 C 24,8 C 52 % 1025,2 hPa 0,0 mm 4,9 km/h (1 Bft) N-NW 337 10,7 C 4,1 km/h (1 Bft)
25.06.2015 14:05 21,0 C 25,2 C 51 % 1025,2 hPa 0,0 mm 4,1 km/h (1 Bft) N-NO 22 10,5 C 13,7 km/h (3 Bft)
25.06.2015 14:10 20,8 C 25,0 C 51 % 1025,2 hPa 0,0 mm 5,4 km/h (1 Bft) NW 315 10,3 C 0,0 km/h (0 Bft)
25.06.2015 14:15 20,7 C 24,5 C 51 % 1025,1 hPa 0,0 mm 7,3 km/h (2 Bft) NO 45 10,2 C 7,8 km/h (2 Bft)
25.06.2015 14:20 20,7 C 24,7 C 52 % 1025,1 hPa 0,0 mm 4,4 km/h (1 Bft) N 360 10,5 C 5,7 km/h (1 Bft)
25.06.2015 14:25 21,0 C 25,2 C 51 % 1025,1 hPa 0,0 mm 4,4 km/h (1 Bft) O-NO 67 10,5 C 7,3 km/h (2 Bft)
25.06.2015 14:30 20,9 C 25,6 C 49 % 1025,1 hPa 0,0 mm 7,8 km/h (2 Bft) NW 315 9,8 C 5,2 km/h (1 Bft)
25.06.2015 14:35 20,2 C 24,7 C 50 % 1025,1 hPa 0,0 mm 6,7 km/h (2 Bft) S-SO 157 9,4 C 5,4 km/h (1 Bft)
25.06.2015 14:40 20,0 C 23,7 C 51 % 1025,1 hPa 0,0 mm 5,4 km/h (1 Bft) NW 315 9,6 C 4,1 km/h (1 Bft)
25.06.2015 14:45 20,0 C 23,3 C 52 % 1025,1 hPa 0,0 mm 7,0 km/h (2 Bft) NW 315 9,8 C 14,8 km/h (3 Bft)
25.06.2015 14:50 20,0 C 22,8 C 51 % 1025,1 hPa 0,0 mm 7,3 km/h (2 Bft) O-NO 67 9,6 C 14,0 km/h (3 Bft)
25.06.2015 14:55 19,9 C 22,7 C 49 % 1025,2 hPa 0,0 mm 8,0 km/h (2 Bft) NO 45 8,9 C 7,8 km/h (2 Bft)
25.06.2015 15:00 19,8 C 22,5 C 50 % 1025,2 hPa 0,0 mm 7,8 km/h (2 Bft) W-SW 247 9,1 C 11,4 km/h (2 Bft)
25.06.2015 15:05 20,2 C 23,1 C 50 % 1025,2 hPa 0,0 mm 6,2 km/h (2 Bft) N-NW 337 9,4 C 8,8 km/h (2 Bft)
25.06.2015 15:10 20,2 C 22,9 C 51 % 1025,2 hPa 0,0 mm 6,0 km/h (2 Bft) W-NW 292 9,7 C 9,3 km/h (2 Bft)
25.06.2015 15:15 20,1 C 22,5 C 51 % 1024,9 hPa 0,0 mm 7,3 km/h (2 Bft) NO 45 9,6 C 10,4 km/h (2 Bft)
25.06.2015 15:20 20,2 C 22,6 C 51 % 1024,9 hPa 0,0 mm 8,0 km/h (2 Bft) N-NO 22 9,7 C 7,0 km/h (2 Bft)
25.06.2015 15:25 20,3 C 22,8 C 51 % 1024,9 hPa 0,0 mm 7,0 km/h (2 Bft) N-NW 337 9,8 C 2,8 km/h (1 Bft)
25.06.2015 15:30 20,9 C 24,2 C 50 % 1024,9 hPa 0,0 mm 6,2 km/h (2 Bft) NW 315 10,1 C 7,8 km/h (2 Bft)
25.06.2015 15:35 21,2 C 25,5 C 49 % 1024,9 hPa 0,0 mm 7,5 km/h (2 Bft) NW 315 10,1 C 13,2 km/h (3 Bft)
25.06.2015 15:40 21,4 C 26,1 C 49 % 1024,9 hPa 0,0 mm 7,8 km/h (2 Bft) N-NW 337 10,2 C 5,2 km/h (1 Bft)
25.06.2015 15:45 21,4 C 26,1 C 48 % 1024,9 hPa 0,0 mm 7,3 km/h (2 Bft) O-NO 67 9,9 C 11,7 km/h (2 Bft)
25.06.2015 15:50 21,2 C 26,0 C 49 % 1024,9 hPa 0,0 mm 6,5 km/h (2 Bft) N 360 10,1 C 9,8 km/h (2 Bft)
25.06.2015 15:55 21,1 C 25,4 C 49 % 1025,0 hPa 0,0 mm 7,8 km/h (2 Bft) N 360 10,0 C 8,3 km/h (2 Bft)
25.06.2015 16:00 20,7 C 24,0 C 48 % 1025,0 hPa 0,0 mm 8,3 km/h (2 Bft) N-NO 22 9,3 C 20,2 km/h (4 Bft)
25.06.2015 16:05 20,8 C 24,8 C 49 % 1025,0 hPa 0,0 mm 6,7 km/h (2 Bft) O-NO 67 9,7 C 6,7 km/h (2 Bft)
25.06.2015 16:10 20,5 C 24,6 C 48 % 1025,0 hPa 0,0 mm 7,3 km/h (2 Bft) NO 45 9,1 C 10,9 km/h (2 Bft)
25.06.2015 16:15 20,3 C 23,9 C 49 % 1025,1 hPa 0,0 mm 8,0 km/h (2 Bft) N-NO 22 9,2 C 7,0 km/h (2 Bft)
25.06.2015 16:20 20,3 C 24,7 C 48 % 1025,1 hPa 0,0 mm 5,2 km/h (1 Bft) NO 45 8,9 C 6,7 km/h (2 Bft)
25.06.2015 16:25 20,0 C 24,5 C 49 % 1025,1 hPa 0,0 mm 5,4 km/h (1 Bft) NO 45 9,0 C 6,2 km/h (2 Bft)
25.06.2015 16:30 20,0 C 25,2 C 49 % 1025,1 hPa 0,0 mm 7,0 km/h (2 Bft) N-NW 337 9,0 C 10,1 km/h (2 Bft)
25.06.2015 16:35 20,0 C 25,4 C 49 % 1024,8 hPa 0,0 mm 6,0 km/h (2 Bft) N 360 9,0 C 18,4 km/h (3 Bft)
25.06.2015 16:40 19,8 C 24,6 C 50 % 1024,8 hPa 0,0 mm 8,0 km/h (2 Bft) N-NO 22 9,1 C 24,3 km/h (4 Bft)
25.06.2015 16:45 19,9 C 25,0 C 50 % 1024,8 hPa 0,0 mm 8,5 km/h (2 Bft) N-NO 22 9,2 C 7,5 km/h (2 Bft)
25.06.2015 16:50 19,6 C 23,5 C 50 % 1024,8 hPa 0,0 mm 5,7 km/h (1 Bft) NO 45 8,9 C 6,2 km/h (2 Bft)
25.06.2015 16:55 19,5 C 22,5 C 51 % 1024,8 hPa 0,0 mm 4,7 km/h (1 Bft) NO 45 9,1 C 10,4 km/h (2 Bft)
25.06.2015 17:00 19,3 C 21,6 C 51 % 1024,8 hPa 0,0 mm 3,9 km/h (1 Bft) NO 45 8,9 C 5,7 km/h (1 Bft)
25.06.2015 17:05 19,3 C 21,4 C 50 % 1024,8 hPa 0,0 mm 3,9 km/h (1 Bft) N-NO 22 8,6 C 6,2 km/h (2 Bft)
25.06.2015 17:10 19,5 C 21,5 C 50 % 1024,8 hPa 0,0 mm 5,2 km/h (1 Bft) NO 45 8,8 C 4,7 km/h (1 Bft)
25.06.2015 17:15 19,6 C 21,6 C 51 % 1024,6 hPa 0,0 mm 5,4 km/h (1 Bft) O-NO 67 9,2 C 4,7 km/h (1 Bft)
25.06.2015 17:20 19,5 C 21,6 C 51 % 1024,6 hPa 0,0 mm 6,5 km/h (2 Bft) O 90 9,1 C 5,2 km/h (1 Bft)
25.06.2015 17:25 19,4 C 21,5 C 51 % 1024,6 hPa 0,0 mm 7,8 km/h (2 Bft) N-NO 22 9,0 C 8,3 km/h (2 Bft)
25.06.2015 17:30 19,4 C 21,3 C 52 % 1024,6 hPa 0,0 mm 7,3 km/h (2 Bft) N-NO 22 9,3 C 9,3 km/h (2 Bft)
25.06.2015 17:35 19,3 C 21,0 C 52 % 1024,4 hPa 0,0 mm 7,8 km/h (2 Bft) NO 45 9,2 C 7,8 km/h (2 Bft)
25.06.2015 17:40 19,3 C 20,8 C 51 % 1024,4 hPa 0,0 mm 8,5 km/h (2 Bft) O-NO 67 8,9 C 3,9 km/h (1 Bft)
25.06.2015 17:45 19,3 C 20,8 C 51 % 1024,4 hPa 0,0 mm 6,5 km/h (2 Bft) N-NO 22 8,9 C 7,5 km/h (2 Bft)
25.06.2015 17:50 19,2 C 20,7 C 51 % 1024,4 hPa 0,0 mm 4,7 km/h (1 Bft) SW 225 8,8 C 2,8 km/h (1 Bft)
25.06.2015 17:55 19,1 C 20,6 C 51 % 1024,6 hPa 0,0 mm 6,0 km/h (2 Bft) N-NO 22 8,7 C 7,3 km/h (2 Bft)
25.06.2015 18:00 19,5 C 21,2 C 52 % 1024,6 hPa 0,0 mm 4,9 km/h (1 Bft) N-NO 22 9,4 C 6,0 km/h (2 Bft)
25.06.2015 18:05 19,5 C 21,5 C 50 % 1024,6 hPa 0,0 mm 5,4 km/h (1 Bft) O-NO 67 8,8 C 7,3 km/h (2 Bft)
25.06.2015 18:10 19,4 C 21,6 C 50 % 1024,6 hPa 0,0 mm 5,7 km/h (1 Bft) O-NO 67 8,7 C 5,2 km/h (1 Bft)
25.06.2015 18:15 19,3 C 21,3 C 50 % 1024,4 hPa 0,0 mm 6,2 km/h (2 Bft) NO 45 8,6 C 8,0 km/h (2 Bft)
25.06.2015 18:20 19,3 C 20,8 C 50 % 1024,4 hPa 0,0 mm 8,3 km/h (2 Bft) NO 45 8,6 C 6,7 km/h (2 Bft)
25.06.2015 18:25 19,2 C 20,6 C 52 % 1024,4 hPa 0,0 mm 6,7 km/h (2 Bft) NO 45 9,1 C 8,3 km/h (2 Bft)
25.06.2015 18:30 19,0 C 20,4 C 52 % 1024,4 hPa 0,0 mm 5,2 km/h (1 Bft) N-NO 22 8,9 C 6,2 km/h (2 Bft)
25.06.2015 18:35 19,0 C 20,8 C 53 % 1024,4 hPa 0,0 mm 5,2 km/h (1 Bft) NO 45 9,2 C 9,8 km/h (2 Bft)
25.06.2015 18:40 18,9 C 21,4 C 52 % 1024,4 hPa 0,0 mm 6,2 km/h (2 Bft) O-NO 67 8,8 C 7,8 km/h (2 Bft)
25.06.2015 18:45 18,9 C 22,0 C 52 % 1024,4 hPa 0,0 mm 7,3 km/h (2 Bft) NO 45 8,8 C 14,8 km/h (3 Bft)
25.06.2015 18:50 18,9 C 22,8 C 52 % 1024,4 hPa 0,0 mm 6,7 km/h (2 Bft) NO 45 8,8 C 11,9 km/h (2 Bft)
25.06.2015 18:55 18,9 C 23,1 C 51 % 1024,2 hPa 0,0 mm 7,0 km/h (2 Bft) O 90 8,5 C 7,8 km/h (2 Bft)
25.06.2015 19:00 19,0 C 23,7 C 51 % 1024,2 hPa 0,0 mm 6,0 km/h (2 Bft) N-NO 22 8,6 C 6,7 km/h (2 Bft)
25.06.2015 19:05 18,9 C 23,8 C 51 % 1024,2 hPa 0,0 mm 5,4 km/h (1 Bft) NO 45 8,5 C 12,4 km/h (3 Bft)
25.06.2015 19:10 18,7 C 23,3 C 51 % 1024,2 hPa 0,0 mm 7,3 km/h (2 Bft) N-NO 22 8,4 C 5,7 km/h (1 Bft)
25.06.2015 19:15 18,7 C 23,4 C 51 % 1024,3 hPa 0,0 mm 7,3 km/h (2 Bft) O 90 8,4 C 7,8 km/h (2 Bft)
25.06.2015 19:20 18,7 C 23,2 C 51 % 1024,3 hPa 0,0 mm 6,2 km/h (2 Bft) NO 45 8,4 C 7,5 km/h (2 Bft)
25.06.2015 19:25 18,6 C 23,0 C 52 % 1024,3 hPa 0,0 mm 6,0 km/h (2 Bft) NO 45 8,5 C 5,4 km/h (1 Bft)
25.06.2015 19:30 18,7 C 23,0 C 52 % 1024,3 hPa 0,0 mm 4,7 km/h (1 Bft) NO 45 8,6 C 0,0 km/h (0 Bft)
25.06.2015 19:35 18,7 C 22,9 C 53 % 1024,4 hPa 0,0 mm 5,2 km/h (1 Bft) NO 45 8,9 C 8,5 km/h (2 Bft)
25.06.2015 19:40 18,7 C 23,0 C 53 % 1024,4 hPa 0,0 mm 4,1 km/h (1 Bft) S-SO 157 8,9 C 3,9 km/h (1 Bft)
25.06.2015 19:45 18,6 C 22,8 C 53 % 1024,4 hPa 0,0 mm 4,4 km/h (1 Bft) O-NO 67 8,8 C 10,6 km/h (2 Bft)
25.06.2015 19:50 18,6 C 22,4 C 53 % 1024,4 hPa 0,0 mm 4,4 km/h (1 Bft) O 90 8,8 C 0,0 km/h (0 Bft)
25.06.2015 19:55 18,5 C 22,3 C 53 % 1024,4 hPa 0,0 mm 4,4 km/h (1 Bft) O-NO 67 8,7 C 3,9 km/h (1 Bft)
25.06.2015 20:00 18,4 C 22,3 C 53 % 1024,4 hPa 0,0 mm 3,1 km/h (1 Bft) O 90 8,6 C 0,0 km/h (0 Bft)
25.06.2015 20:05 18,3 C 22,2 C 54 % 1024,4 hPa 0,0 mm 2,3 km/h (1 Bft) O-SO 112 8,8 C 0,0 km/h (0 Bft)
25.06.2015 20:10 18,2 C 22,4 C 54 % 1024,4 hPa 0,0 mm 0,8 km/h (0 Bft) O-SO 112 8,7 C 4,1 km/h (1 Bft)
25.06.2015 20:15 18,0 C 22,2 C 54 % 1024,4 hPa 0,0 mm 0,5 km/h (0 Bft) O-NO 67 8,6 C 0,0 km/h (0 Bft)
25.06.2015 20:20 17,9 C 22,2 C 55 % 1024,4 hPa 0,0 mm 0,5 km/h (0 Bft) O 90 8,7 C 0,0 km/h (0 Bft)
25.06.2015 20:25 17,6 C 22,1 C 55 % 1024,4 hPa 0,0 mm 0,0 km/h (0 Bft) O-SO 112 8,5 C 0,0 km/h (0 Bft)
25.06.2015 20:30 17,4 C 21,4 C 55 % 1024,4 hPa 0,0 mm 0,0 km/h (0 Bft) N-NW 337 8,3 C 0,0 km/h (0 Bft)
25.06.2015 20:35 17,1 C 21,0 C 56 % 1024,4 hPa 0,0 mm 0,0 km/h (0 Bft) SO 135 8,3 C 0,0 km/h (0 Bft)
25.06.2015 20:40 16,9 C 20,0 C 57 % 1024,4 hPa 0,0 mm 0,3 km/h (0 Bft) S-SO 157 8,3 C 0,0 km/h (0 Bft)
25.06.2015 20:45 16,6 C 19,6 C 58 % 1024,4 hPa 0,0 mm 0,3 km/h (0 Bft) SO 135 8,3 C 0,0 km/h (0 Bft)
25.06.2015 20:50 16,1 C 19,0 C 59 % 1024,4 hPa 0,0 mm 0,0 km/h (0 Bft) S-SO 157 8,1 C 0,0 km/h (0 Bft)
25.06.2015 20:55 15,9 C 18,4 C 60 % 1024,5 hPa 0,0 mm 0,0 km/h (0 Bft) S-SO 157 8,1 C 0,0 km/h (0 Bft)
25.06.2015 21:00 15,2 C 17,2 C 62 % 1024,5 hPa 0,0 mm 0,3 km/h (0 Bft) S-SO 157 8,0 C 0,0 km/h (0 Bft)
25.06.2015 21:05 14,9 C 16,5 C 63 % 1024,5 hPa 0,0 mm 0,3 km/h (0 Bft) S-SO 157 7,9 C 0,0 km/h (0 Bft)
25.06.2015 21:10 14,5 C 15,6 C 64 % 1024,5 hPa 0,0 mm 0,5 km/h (0 Bft) S-SO 157 7,8 C 2,6 km/h (1 Bft)
25.06.2015 21:15 14,3 C 15,0 C 65 % 1024,6 hPa 0,0 mm 0,3 km/h (0 Bft) S-SO 157 7,8 C 0,0 km/h (0 Bft)
25.06.2015 21:20 13,8 C 14,4 C 67 % 1024,6 hPa 0,0 mm 1,0 km/h (0 Bft) S 180 7,8 C 4,1 km/h (1 Bft)
25.06.2015 21:25 13,6 C 14,3 C 68 % 1024,6 hPa 0,0 mm 2,3 km/h (1 Bft) S 180 7,8 C 3,6 km/h (1 Bft)
25.06.2015 21:30 13,3 C 14,1 C 69 % 1024,6 hPa 0,0 mm 2,8 km/h (1 Bft) S-SO 157 7,7 C 3,1 km/h (1 Bft)
25.06.2015 21:35 13,1 C 13,8 C 69 % 1024,7 hPa 0,0 mm 1,6 km/h (1 Bft) SO 135 7,5 C 0,0 km/h (0 Bft)
25.06.2015 21:40 12,8 C 12,9 C 71 % 1024,7 hPa 0,0 mm 0,0 km/h (0 Bft) SO 135 7,7 C 0,0 km/h (0 Bft)
25.06.2015 21:45 12,5 C 12,7 C 72 % 1024,7 hPa 0,0 mm 0,0 km/h (0 Bft) SO 135 7,6 C 0,0 km/h (0 Bft)
25.06.2015 21:50 12,2 C 12,3 C 73 % 1024,7 hPa 0,0 mm 0,0 km/h (0 Bft) SO 135 7,5 C 0,0 km/h (0 Bft)
25.06.2015 21:55 12,0 C 12,0 C 73 % 1025,0 hPa 0,0 mm 0,0 km/h (0 Bft) S 180 7,3 C 0,0 km/h (0 Bft)
25.06.2015 22:00 11,9 C 11,9 C 74 % 1025,0 hPa 0,0 mm 0,0 km/h (0 Bft) S 180 7,4 C 0,0 km/h (0 Bft)
25.06.2015 22:05 11,8 C 11,9 C 74 % 1025,0 hPa 0,0 mm 0,0 km/h (0 Bft) S 180 7,3 C 0,0 km/h (0 Bft)
25.06.2015 22:10 11,5 C 11,5 C 74 % 1025,0 hPa 0,0 mm 0,0 km/h (0 Bft) S-SO 157 7,0 C 0,0 km/h (0 Bft)
25.06.2015 22:15 11,4 C 11,3 C 74 % 1024,9 hPa 0,0 mm 0,0 km/h (0 Bft) SO 135 6,9 C 0,0 km/h (0 Bft)
25.06.2015 22:20 11,3 C 11,1 C 75 % 1024,9 hPa 0,0 mm 0,0 km/h (0 Bft) S-SO 157 7,0 C 0,0 km/h (0 Bft)
25.06.2015 22:25 11,2 C 11,0 C 75 % 1024,9 hPa 0,0 mm 0,0 km/h (0 Bft) S 180 6,9 C 0,0 km/h (0 Bft)
25.06.2015 22:30 11,1 C 10,8 C 74 % 1024,9 hPa 0,0 mm 0,0 km/h (0 Bft) S-SO 157 6,6 C 0,0 km/h (0 Bft)
25.06.2015 22:35 10,9 C 10,6 C 75 % 1024,9 hPa 0,0 mm 0,0 km/h (0 Bft) S-SO 157 6,6 C 0,0 km/h (0 Bft)
25.06.2015 22:40 10,6 C 10,4 C 75 % 1024,9 hPa 0,0 mm 0,0 km/h (0 Bft) S-SO 157 6,4 C 0,0 km/h (0 Bft)
25.06.2015 22:45 10,6 C 10,3 C 75 % 1024,9 hPa 0,0 mm 0,0 km/h (0 Bft) S-SO 157 6,4 C 0,0 km/h (0 Bft)
25.06.2015 22:50 10,4 C 10,1 C 75 % 1024,9 hPa 0,0 mm 0,0 km/h (0 Bft) S-SO 157 6,2 C 0,0 km/h (0 Bft)
25.06.2015 22:55 10,3 C 10,0 C 76 % 1024,9 hPa 0,0 mm 0,0 km/h (0 Bft) S-SO 157 6,3 C 0,0 km/h (0 Bft)
25.06.2015 23:00 10,2 C 9,9 C 76 % 1024,9 hPa 0,0 mm 0,0 km/h (0 Bft) S-SO 157 6,2 C 0,0 km/h (0 Bft)
25.06.2015 23:05 10,2 C 9,9 C 76 % 1024,9 hPa 0,0 mm 0,0 km/h (0 Bft) S-SO 157 6,2 C 0,0 km/h (0 Bft)
25.06.2015 23:10 10,1 C 9,8 C 76 % 1024,9 hPa 0,0 mm 0,0 km/h (0 Bft) S-SO 157 6,1 C 0,0 km/h (0 Bft)
25.06.2015 23:15 10,1 C 9,7 C 77 % 1024,9 hPa 0,0 mm 0,0 km/h (0 Bft) SO 135 6,3 C 0,0 km/h (0 Bft)
25.06.2015 23:20 10,3 C 9,9 C 79 % 1024,9 hPa 0,0 mm 0,0 km/h (0 Bft) S 180 6,8 C 0,0 km/h (0 Bft)
25.06.2015 23:25 10,4 C 10,0 C 78 % 1024,9 hPa 0,0 mm 0,0 km/h (0 Bft) S 180 6,7 C 0,0 km/h (0 Bft)
25.06.2015 23:30 10,1 C 9,8 C 78 % 1024,9 hPa 0,0 mm 0,0 km/h (0 Bft) S 180 6,4 C 0,0 km/h (0 Bft)
25.06.2015 23:35 10,1 C 9,8 C 78 % 1025,1 hPa 0,0 mm 0,0 km/h (0 Bft) S 180 6,4 C 0,0 km/h (0 Bft)
25.06.2015 23:40 9,9 C 9,6 C 78 % 1025,1 hPa 0,0 mm 0,0 km/h (0 Bft) S 180 6,2 C 0,0 km/h (0 Bft)
25.06.2015 23:45 9,8 C 9,5 C 78 % 1025,1 hPa 0,0 mm 0,0 km/h (0 Bft) S 180 6,1 C 0,0 km/h (0 Bft)
25.06.2015 23:50 10,1 C 9,7 C 79 % 1025,1 hPa 0,0 mm 0,0 km/h (0 Bft) S-SO 157 6,6 C 0,0 km/h (0 Bft)
25.06.2015 23:55 10,4 C 10,0 C 80 % 1025,2 hPa 0,0 mm 0,0 km/h (0 Bft) S-SO 157 7,1 C 0,0 km/h (0 Bft)
_ Min-Zeit 04:30 04:40 16:20 08:50 - 23:55 - - 04:30 23:55
Minimum _ 5,1 C 5,0 C 48 % 1023,8 hPa - 0,0 km/h (0 Bft) - - 3,3 C 0,0 km/h (0 Bft)
_ Max-Zeit 15:45 08:25 06:25 13:10 23:55 17:40 - - 08:50 16:40
Maximum _ 21,4 C 26,5 C 90 % 1025,6 hPa 0,0 mm 8,5 km/h
O-NO (2 Bft)
- - 11,5 C 24,3 km/h
N-NO (4 Bft)
Durchschnitt _ 14,1 C 16,9 C 67 % 1024,5 hPa #0,0 mm 2,7 km/h (1 Bft) NO - 7,5 C 3,7 km/h (1 Bft)